Location: DaVinci Observatory
(43.1080°N, 78.6453°W)
Time: 14:07:48
(UTC-04:00)

Tiangong 1 - Pass Details

Date: 13 October 2017
Orbit: 293 x 320 km, 42.8° (Epoch: 20 October)

Event Time Altitude Azimuth Distance (km) Brightness Sun altitude
Rises 19:53:02 0° 278° (W) 2,043 6.6 -15.1°
Reaches altitude 10° 19:55:04 10° 271° (W) 1,207 5.0 -15.5°
Maximum altitude 19:57:39 43° 198° (SSW) 449 1.5 -15.9°
Enters shadow 19:58:12 36° 161° (SSE) 507 1.4 -16.0°
